ONEWEB-0224 (48794 NORAD) Tracking and Keplerian Element Data

This shows tracking and keplerian element data for the satellite.

Feedback or suggestion? Click here.




ElementValue
Catalog48794
NameONEWEB-0224
Epoch Orbit194
Epoch Day170.58334491
Epoch Year2021
RAAN268.9139
Inclination87.3978
Eccentricity0.0007892
Argument of Perigee164.1692
Mean Anonmoly14.2289
Mean Motion15.25406186
Decay Rate-0.00978954
L11 48794U 21045AD 21170.58334491 -.00978954 00000-0 -42021-1 0 9996
L22 48794 87.3978 268.9139 0007892 164.1692 14.2289 15.25406186 1947

Live tracking and technical data element details for ONEWEB-0224 (NORAD 48794). ONEWEB-0224 can be tracked NOW for your location showing map with azimuth and elevation plus other details from your city location.

Track the satellite on the map from your city or location and see movement details for azimuth, elevation, latitude, longitude, range, height, and movement on the map or in text.







IsCatalogInMostPopularTable: catalog: 48794, numindb: 6
Update: records affected: 1



GetName: 48794 ONEWEB-0224

Hit Count: updated at: Mon, 21 Jun 2021 03:21:20 GMT